User: anonymous   Login
Location: Unspecified
(0.0000°N, 0.0000°E)
Time: 04:23:44
(UTC+00:00)
Language:

GEOEYE 1 - Orbit

View from above orbital plane
View from above orbital plane
View from above satellite
View from above satellite

Ground track
Ground track

The orbit data is extracted from the following two-line orbital elements,

1 33331U 08042A   15244.72793320  .00000183  00000-0  43474-4 0  9994
2 33331  98.1037 318.6414 0009553 153.3937 206.7755 14.64451090373338
Epoch (UTC): 01 September 2015 17:28:13
Eccentricity: 0.0009553
inclination: 98.1037°
perigee height: 672 km
apogee height: 685 km
right ascension of ascending node: 318.6414°
argument of perigee: 153.3937°
revolutions per day: 14.64451090
mean anomaly at epoch: 206.7755°
orbit number at epoch: 37333

The dashed part of the orbit path shows where the satellite is in the earth's shadow,  

DLR